カタログに戻る

TAURUS 4

運用中通信VLEO
NORAD 66307·PAYLOAD·🇹🇷 Turkey
この衛星名は、まだ公式ソースで確認されていません。

打ち上げ Nov 2, 2025 から Cape Canaveral Space Force Station

Loading…

次のパス (今後24時間)

TLE

最新Source: Space-Track

元期: Sep 14, 2026, 07:45 UTC

1 66307U 25248Q   26257.32340442  .00013492  00000-0  46967-3 0  9991
2 66307  45.3911 350.0372 0009835 223.8262 136.1849 15.29675683 48249

AllMySatでTAURUS 4をリアルタイム追跡

Download on the App Store